Darstellungsparameter: Aktuell verwendete Einstellungen:
Skalierung der Graphiken ... ?
xyx+y,   Skalierungsfaktor:      Skalierung: Modus: x, Faktor: 1
Darstellungszeitraum ... ?
Vom - - bis: - -   Zeitraum: 12.05.2021 - 13.05.2021
Min/Max/Avg-Anzeige ... ?
Zeige MMA aktuell
Zeige MMA Monat
Zeige MMA alles
Zeige --A aktuell
Zeige --A Monat
Zeige --A alles
Keine MMA-Anzeige
MMA:
Keine MMA-Graphiken
MMA-Basis: 12.05.2021 - 13.05.2021
Quicknavigation für Darstellung... ?
Tage:      1T, 2T, 3T, 5T -1T -2T -3T -5T +1T +2T +3T +5T
Wochen: 1W, 2W, 3W -1W -2W -3W +1W +2W +3W
Monate: 1M, 3M, 6M -1M -3M -6M +1M +3M +6M
Jahre:    1J, 3J, 5J, 10J -1J -3J -5J -10J +1J +3J +5J +10J
Nutze für die Darstellung ... ?
Originaldaten oder Mittelwerte auf ...
Stundenbasis Tagesbasis Wochenbasis
Monatsbasis Jahresbasis      Datenbasis: Original-Daten
Darstellen als:
Statistik (Auto) Statistik J:M      Darstellung:

Der gewünschte Datumsbereich war nicht gültig/verfügbar und wurde korrigiert....
Das angegebene Enddatum (15.11.2022 23:59:59) liegt in der Zukunft.
Das angegebene Startdatum (16.08.2022 00:00:00) liegt in der Zukunft.


Zur Graphik,    zurück zur Übersicht aller Sensoren.
 
Tabellarische Datenbersicht: ?
 
Sensor: Nr:Datum:Temp:Abs-Feuchte:Windchill:Wind:
Aussen-T/F 1 12-05-2021 02:00:00 11.6 C 9.98 g/m*3 11.6 C 1.6 km/h
2 12-05-2021 02:05:00 11.6 C 9.98 g/m*3 11.6 C 1.6 km/h
3 12-05-2021 02:10:00 11.6 C 9.98 g/m*3 11.6 C 1.6 km/h
4 12-05-2021 02:15:00 11.5 C 9.92 g/m*3 11.5 C 1.6 km/h
5 12-05-2021 02:20:00 11.5 C 9.92 g/m*3 11.5 C 0 km/h
6 12-05-2021 02:25:00 11.4 C 9.85 g/m*3 11.4 C 1.6 km/h
7 12-05-2021 02:30:00 11.4 C 9.85 g/m*3 11.4 C 1.6 km/h
8 12-05-2021 02:35:00 11.3 C 9.79 g/m*3 11.3 C 3.2 km/h
9 12-05-2021 02:40:00 11.3 C 9.79 g/m*3 11.3 C 4.8 km/h
10 12-05-2021 02:45:00 11.3 C 9.79 g/m*3 11.3 C 9.7 km/h
11 12-05-2021 02:50:00 11.2 C 9.73 g/m*3 11.2 C 3.2 km/h
12 12-05-2021 02:55:00 11.2 C 9.73 g/m*3 11.2 C 1.6 km/h
13 12-05-2021 03:00:00 11.1 C 9.67 g/m*3 11.1 C 3.2 km/h
14 12-05-2021 03:05:00 11.1 C 9.67 g/m*3 11.1 C 1.6 km/h
15 12-05-2021 03:10:00 11.1 C 9.67 g/m*3 11.1 C 3.2 km/h
16 12-05-2021 03:15:00 11 C 9.61 g/m*3 11 C 3.2 km/h
17 12-05-2021 03:20:00 11 C 9.61 g/m*3 11 C 1.6 km/h
18 12-05-2021 03:25:00 10.9 C 9.55 g/m*3 10.9 C 3.2 km/h
19 12-05-2021 03:30:00 10.9 C 9.55 g/m*3 10.9 C 3.2 km/h
20 12-05-2021 03:35:00 10.9 C 9.55 g/m*3 10.41 C 6.4 km/h
21 12-05-2021 03:40:00 10.9 C 9.55 g/m*3 10.9 C 3.2 km/h
22 12-05-2021 03:45:00 11 C 9.61 g/m*3 11 C 3.2 km/h
23 12-05-2021 03:50:00 11.1 C 9.67 g/m*3 11.1 C 6.4 km/h
24 12-05-2021 03:55:00 11.1 C 9.67 g/m*3 11.1 C 1.6 km/h
25 12-05-2021 04:00:00 11.1 C 9.67 g/m*3 11.1 C 1.6 km/h
Sensor: Nr:Datum:Temp:Abs-Feuchte:Windchill:Wind:
Aussen-T/F 26 12-05-2021 04:05:00 11.2 C 9.73 g/m*3 11.2 C 1.6 km/h
27 12-05-2021 04:10:00 11.2 C 9.73 g/m*3 11.2 C 1.6 km/h
28 12-05-2021 04:15:00 11.1 C 9.67 g/m*3 11.1 C 1.6 km/h
29 12-05-2021 04:20:00 11.1 C 9.67 g/m*3 11.1 C 1.6 km/h
30 12-05-2021 04:25:00 11.1 C 9.67 g/m*3 11.1 C 0 km/h
31 12-05-2021 04:30:00 11.1 C 9.67 g/m*3 11.1 C 1.6 km/h
32 12-05-2021 04:35:00 11.1 C 9.67 g/m*3 11.1 C 0 km/h
33 12-05-2021 04:40:00 11.1 C 9.67 g/m*3 11.1 C 1.6 km/h
34 12-05-2021 04:45:00 11 C 9.61 g/m*3 11 C 1.6 km/h
35 12-05-2021 04:50:00 11.1 C 9.67 g/m*3 11.1 C 0 km/h
36 12-05-2021 04:55:00 11.1 C 9.67 g/m*3 11.1 C 1.6 km/h
37 12-05-2021 05:00:00 11.1 C 9.67 g/m*3 11.1 C 1.6 km/h
38 12-05-2021 05:05:00 11.1 C 9.67 g/m*3 11.1 C 0 km/h
39 12-05-2021 05:10:00 11.1 C 9.67 g/m*3 11.1 C 1.6 km/h
40 12-05-2021 05:15:00 11.1 C 9.67 g/m*3 11.1 C 1.6 km/h
41 12-05-2021 05:20:00 11.1 C 9.67 g/m*3 11.1 C 1.6 km/h
42 12-05-2021 05:25:00 11.1 C 9.67 g/m*3 11.1 C 1.6 km/h
43 12-05-2021 05:30:00 11.1 C 9.67 g/m*3 11.1 C 4.8 km/h
44 12-05-2021 05:35:00 11.1 C 9.67 g/m*3 11.1 C 3.2 km/h
45 12-05-2021 05:40:00 11.1 C 9.67 g/m*3 11.1 C 1.6 km/h
46 12-05-2021 05:45:00 11.1 C 9.67 g/m*3 11.1 C 1.6 km/h
47 12-05-2021 05:50:00 11.1 C 9.67 g/m*3 11.1 C 6.4 km/h
48 12-05-2021 05:55:00 11.1 C 9.67 g/m*3 11.1 C 1.6 km/h
49 12-05-2021 06:00:00 11 C 9.61 g/m*3 11 C 4.8 km/h
50 12-05-2021 06:05:00 11 C 9.61 g/m*3 11 C 1.6 km/h
Sensor: Nr:Datum:Temp:Abs-Feuchte:Windchill:Wind:
Aussen-T/F 51 12-05-2021 06:10:00 11 C 9.61 g/m*3 11 C 3.2 km/h
52 12-05-2021 06:15:00 11 C 9.61 g/m*3 11 C 3.2 km/h
53 12-05-2021 06:20:00 11 C 9.61 g/m*3 11 C 3.2 km/h
54 12-05-2021 06:25:00 11 C 9.61 g/m*3 11 C 1.6 km/h
55 12-05-2021 06:30:00 11 C 9.61 g/m*3 10.16 C 8.1 km/h
56 12-05-2021 06:35:00 11 C 9.61 g/m*3 11 C 4.8 km/h
57 12-05-2021 06:40:00 11 C 9.61 g/m*3 11 C 1.6 km/h
58 12-05-2021 06:45:00 11 C 9.61 g/m*3 11 C 4.8 km/h
59 12-05-2021 06:50:00 11 C 9.61 g/m*3 11 C 4.8 km/h
60 12-05-2021 06:55:00 11.1 C 9.67 g/m*3 11.1 C 8.1 km/h
61 12-05-2021 07:00:00 11.1 C 9.67 g/m*3 11.1 C 1.6 km/h
62 12-05-2021 07:05:00 11.1 C 9.57 g/m*3 11.1 C 4.8 km/h
63 12-05-2021 07:10:00 11.1 C 9.57 g/m*3 11.1 C 3.2 km/h
64 12-05-2021 07:15:00 11.1 C 9.57 g/m*3 11.1 C 0 km/h
65 12-05-2021 07:20:00 11.1 C 9.57 g/m*3 11.1 C 1.6 km/h
66 12-05-2021 07:25:00 11.1 C 9.57 g/m*3 11.1 C 4.8 km/h
67 12-05-2021 07:30:00 11 C 9.51 g/m*3 11 C 1.6 km/h
68 12-05-2021 07:35:00 11 C 9.51 g/m*3 10.52 C 6.4 km/h
69 12-05-2021 07:40:00 11 C 9.51 g/m*3 11 C 0 km/h
70 12-05-2021 07:45:00 11.1 C 9.57 g/m*3 11.1 C 1.6 km/h
71 12-05-2021 07:50:00 11.1 C 9.57 g/m*3 11.1 C 4.8 km/h
72 12-05-2021 07:55:00 11.3 C 9.79 g/m*3 11.3 C 4.8 km/h
73 12-05-2021 08:00:00 11.3 C 9.69 g/m*3 11.3 C 8.1 km/h
74 12-05-2021 08:05:00 11.4 C 9.75 g/m*3 11.4 C 11.3 km/h

Legende:
   Min
   Max


Maximal/Minimal-Werte vom 12.05.2021 - 13.05.2021

Sensor Min Max Avg
Temp
(Aussen-T/F)
10.9 °C
12-05-2021  03:25:00
11.6 °C
12-05-2021  02:00:00
11.13 °C
Abs-Feuchte
(Aussen-T/F)
9.51 g/m*3
12-05-2021  07:30:00
9.98 g/m*3
12-05-2021  02:00:00
9.54 g/m*3
Windchill
(Aussen-T/F)
10.16 C
12-05-2021  06:30:00
11.6 C
12-05-2021  02:00:00
10.95 C

Die Daten stammen von einer Davis Vantage Pro 2 Wetter-Station und werden unter Linux mit der Software wview2wettercgi und aufbereitet. Alle Angaben erfolgen ohne Gewähr für ihre Vollständigkeit oder Richtigkeit.
Kontakt: Rainer Krienke krienke@uni-koblenz.de . Meine Webseiten an der Uni Koblenz oder privat.
Version: $Revision: 0.78 $